Tracking 30995 objects as of 5-Jul-2025
HD Live streaming from Space Station
objects crossing your sky now

STARLINK-5721

Track STARLINK-5721 now!
10-day predictions
STARLINK-5721 is classified as:


NORAD ID: 55617
Int'l Code: 2023-020BA
Perigee: 565.5 km
Apogee: 567.1 km
Inclination: 43.0 °
Period: 95.8 minutes
Semi major axis: 6937 km
RCS: Unknown
Launch date: February 12, 2023
Source: United States (US)
Launch site: AIR FORCE EASTERN TEST RANGE (AFETR)
Your satellite tracking list
Your tracking list is empty




NASA's NSSDC Master Catalog

Two Line Element Set (TLE):
1 55617U 23020BA  25186.48142921  .00004412  00000-0  34165-3 0  9997
2 55617  43.0022 254.8553 0001149 280.9577  79.1136 15.02511948131886
Source of the keplerian elements: AFSPC